LUCH 5B (SDCM/PRN 125)

Last updated on Thu Jul 03 2025 00:03:25 GMT+0000 (Coordinated Universal Time)

1 38977U 12061A 25182.94697825 -.00000137 00000+0 00000+0 0 9992 2 38977 9.7229 53.2669 0003818 122.5795 69.0251 1.00271683 46097
UTC large
Height (km)
Speed (km/s)
/
Latitude / Longitude
Inclination (degrees)
Orbital Period (minutes)
Azimuth
Elevation
Range (km)
Doppler Factor

Next 0 passes for location: London (51.5072 / 0.1276)

Sorry there are no passes over London.